www.pogodaiklimat.ru

Погода и климат >> Архив погоды >> Малайзия >> Ипох


ПОГОДА в Ипохе

  • Прогноз погоды в Ипохе
  • Монитор погоды в Ипохе

АРХИВ ПОГОДЫ в Ипохе

Время (UTC), дата Ветер
(напр.,м/с)
 
Видим.   Явления Облачность Т
(С)
Тd
(С)
f
(%)
Тe
(С)
Тes
(С)
Комфортность P
(гПа)
Po
(гПа)
Тmin
(С)
Tmax
(С)
R
(мм)
R24
(мм)
S
(см)
00 9.09 Ю 2 4000 м мгла 9/4 500 м
[Cb cap Ac trans Ci sp]
+25.7 +23.4 87 +35 +35 очень
душно
1012.9 1008.2 +25.0
06 9.09 ЮЗ 2 5000 м мгла 9/3 600 м
[Cu hum Ac trans Ci sp]
+31.2 +23.9 65 +43 +52 опасность
перегрева
1010.6 1005.9 4
12 9.09 штиль 0 6000 м мгла 9/3 900 м
[Sc Ac trans Ci sp]
+28.4 +24.7 80 +40 +40 очень
душно
1009.8 1005.1 +32.7
18 9.09 В 2 6000 м мгла 9/4 900 м
[Sc Ac trans Ci sp]
+26.6 +23.7 84 +36 +36 очень
душно
1010.6 1005.9
00 10.09 штиль 0 4000 м слаб. дождь 9/3 900 м
[Sc Ac trans Ci sp]
+23.9 +23.2 96 +32 +32 очень
душно
1012.8 1008.1 +23.6 10
06 10.09 ЮЗ 4 4000 м мгла 9/3 600 м
[Cu med, cong Ac trans Ci sp]
+32.5 +24.6 63 +45 +52 опасность
перегрева
1010.2 1005.5 0.0
12 10.09 штиль 0 4000 м мгла 9/1 900 м
[Sc Ac trans Ci sp]
+28.8 +24.2 76 +40 +40 очень
душно
1010.0 1005.3 +32.9
18 10.09 СВ 2 6000 м мгла 9/3 900 м
[Sc Ac trans Ci sp]
+26.4 +22.6 80 +35 +35 очень
душно
1012.3 1007.6
00 11.09 штиль 0 6000 м мгла 9/4 900 м
[Sc Ac trans Ci sp]
+25.5 +22.7 85 +34 +34 очень
душно
1013.9 1009.2 +23.9 0.0
06 11.09 Ю 4 4000 м мгла 9/3 600 м
[Cu med, cong Ac trans Ci sp]
+32.6 +23.5 59 +44 +49 опасность
перегрева
1011.0 1006.3
12 11.09 В 2 4000 м мгла 9/3 900 м
[Sc Ac trans Ci sp]
+28.6 +22.1 68 +37 +37 очень
душно
1010.8 1006.1 +34.3
18 11.09 В 2 4000 м мгла 9/3 900 м
[Sc Ac trans Ci sp]
+27.1 +23.0 78 +36 +36 очень
душно
1012.8 1008.1
00 12.09 СВ 3 4000 м мгла 9/3 900 м
[Sc Ac trans Ci sp]
+26.3 +22.8 81 +35 +35 очень
душно
1013.8 1009.1 +25.5
06 12.09 ЮЗ 4 2500 м мгла 9/4 600 м
[Cu hum Ac trans Ci sp]
+33.4 +23.1 55 +44 +49 опасность
перегрева
1011.6 1006.9
12 12.09 СВ 2 2000 м в посл. час дождь {ливн. осадки} 9/4 600 м
[Sc Ac trans Ci sp]
+26.6 +24.8 90 +38 +38 очень
душно
1011.8 1007.1 +34.4 2
18 12.09 В 1 3000 м мгла 9/4 90 м
[Sc Ac trans Ci sp]
+25.6 +24.2 92 +35 +35 очень
душно
1012.5 1007.8 0.2
00 13.09 штиль 0 3000 м мгла 9/3 120 м
[Sc Ac trans Ci sp]
+24.6 +23.1 91 +33 +33 очень
душно
1013.0 1008.3 +24.2 2
06 13.09 ЮВ 2 1500 м мгла ?/? +32.6 +23.2 58 +43 +43 опасность
перегрева
1011.4 1006.7
12 13.09 СВ 1 2000 м мгла {туман} ?/? +27.0 +23.4 81 +37 +37 очень
душно
1011.6 1006.9 +33.0
18 13.09 штиль 0 5000 м мгла 8/3 900 м
[Sc Ac lent Ci sp]
+25.1 +23.2 89 +34 +34 очень
душно
1011.6 1006.9
00 14.09 СВ 2 5000 м мгла 9/3 300 м
[Sc Ac lent Ci sp]
+24.6 +22.9 90 +33 +33 очень
душно
1011.9 1007.2 +23.9
06 14.09 З 4 11 км мгла 9/4 500 м
[Cb cap Ac trans Ci sp]
+31.3 +24.0 65 +43 +48 опасность
перегрева
1010.3 1005.6
12 14.09 СВ 1 9000 м слаб. дождь 9/4 500 м
[Cb cap Ac trans Cs]
+25.1 +23.8 93 +34 +34 очень
душно
1010.7 1006.0 +32.4 1
18 14.09 С 2 8000 м в посл. час дождь 9/3 240 м
[Sc Ac trans Ci sp]
+24.3 +23.0 92 +32 +32 очень
душно
1010.3 1005.6 0.8
00 15.09 СВ 2 10 км мгла 9/3 900 м
[Sc Ac trans Cs]
+24.4 +22.8 91 +32 +33 очень
душно
1010.6 1005.9 +23.7 2
06 15.09 Ю 2 12 км мгла 9/5 600 м
[Cu med, cong Ac trans Ci sp]
+31.7 +22.0 56 +40 +47 очень
душно
1009.5 1004.8
12 15.09 штиль 0 10 км мгла 9/3 900 м
[Sc Ac trans Cs]
+29.1 +24.6 77 +41 +41 опасность
перегрева
1009.0 1004.3 +33.6
18 15.09 СВ 2 10 км мгла 9/3 900 м
[Sc Ac trans Cs]
+26.4 +23.5 84 +36 +36 очень
душно
1009.5 1004.8

 

Местоположение метеостанции Ипох (Малайзия): широта 4.57 долгота 101.10 высота над уровнем моря 39 м.

В архиве по умолчанию представлена погода в Ипохе за последнюю неделю. Архивные данные за месяц целиком и за предыдущие месяцы, начиная с января 2011 года, Вы можете получить, выбрав интересующий диапазон дат из раскрывающегося списка и нажав кнопку "Ввод!".


*Определитесь, кто Вы:
робот инопланетянин человек

Внимание! Время в таблицах - всемирное. Для получения местного времени необходимо прибавить поправку, которая равна 7 ч.

Смотрите также архив погоды в соседних городах и на ближайших метеорологических станциях:

Погода на Нагорье Кэмерон (Малайзия) (32 км)
Погода в Ситаване (Малайзия) (59 км)
Погода в Пенанге (Малайзия) (124 км)
Погода на Авиабазе Баттерворт (Малайзия) (128 км)
Погода в Куала-Лумпуре (Малайзия) (169 км)
Погода в Алор Стар (Малайзия) (197 км)
Погода в Куала-Лумпур аэропорту (Малайзия) (216 км)
Погода в Яла Агромете (Таиланд) (218 км)
Погода в Наратхивате (Таиланд) (220 км)
Погода в Кота-Бхару (Малайзия) (221 км)

Пояснения к столбцам:

Ветер - указаны скорость ветра в м/с - средняя за 10 мин, порывы в срок и между сроками (в фигурных скобках) и направление, откуда дует ветер: С - северный, СВ - северо-восточный, В - восточный, ЮВ - юго-восточный, Ю - южный, ЮЗ - юго-западный, З - западный, СЗ - северо-западный.
Видимость - горизонтальная дальность видимости в метрах или километрах. При видимости от 1 до 10 км при отсутствии осадков обычно наблюдается дымка, при ухудшении видимости до 1 км и менее - туман. В сухую погоду видимость может ухудшаться дымом, пылью или мглою.
Явления - указаны атмосферные явления, наблюдавшиеся в срок или в последний час перед сроком; фигурными скобками обозначены явления, наблюдавшиеся между сроками (за 1-3 часа до срока); квадратными скобками обозначены град или гололедные отложения с указанием их диаметра в мм.
Облачность - указаны через наклонную черту общая и нижняя облачность в баллах и высота нижней границы облаков в метрах; квадратными скобками обозначены формы облаков: Ci - перистые, Cs - перисто-слоистые, Cc - перисто-кучевые, Ac - высококучевые, As - высокослоистые, Sc - слоисто-кучевые, Ns - слоисто-дождевые, Cu - кучевые, Cb - кучево-дождевые. Подробнее классификацию облаков см. в Атласе облаков (PDF).
T - Температура воздуха - температура, измеренная на высоте 2 м над землей.
Td - Температура точки росы - температура, при понижении до которой содержащийся в воздухе водяной пар достигнет насыщения.
f - Относительная влажность воздуха - влажноcть воздуха, измеренная на высоте 2 м над землей.
Te - Эффективная температура - температура, которую ощущает одетый по сезону человек в тени. Характеристика душности погоды. При расчете учитывается влияние влажности воздуха и скорости ветра на теплоощущения человека.
Tes - Эффективная температура на солнце - температура, которую ощущает человек, с поправкой на солнечный нагрев. Характеристика знойности погоды. Зависит от высоты солнца над горизонтом, облачности и скорости ветра. Ночью, в пасмурную погоду, а также при ветре 12 м/с и более поправка равна нулю.
P - Атмосферное давление - приведенное к уровню моря атмосферное давление.
Po - Атмосферное давление - измеренное на уровне метеостанции атмосферное давление.
Tmin - Минимальная температура - минимум температуры воздуха на высоте 2 м над землей.
Tmax - Максимальная температура - максимум температуры воздуха на высоте 2 м над землей.
R - Количество осадков - Количество выпавших осадков за период времени, мм. При наведении курсора мыши на число - период времени, за который выпало указанное количество осадков.
R24 - Количество осадков - Количество выпавших осадков за 24 часа, мм.
S - Снежный покров - Высота снежного покрова, см. При наведении курсора мыши на число - состояние снежного покрова и степень покрытия местности в баллах.